CW9119 Weather Reports


Display with metric or nautical units.
time (UTC)temp
F
wind
direction
speed
MPH
gust
MPH
rain 1hr
in
rain 24hr
in
rain mn
in
humidity
%
barometer
mb
20260508061112 45 265 0.0 0.0 0.00 0.23 0.00 94 1014.6
20260508054112 45 265 0.0 0.0 0.00 0.23 0.00 94 1014.4
20260508050111 44 265 0.0 0.0 0.00 0.23 0.00 94 1014.3
20260508044111 44 265 0.0 0.0 0.00 0.24 0.00 94 1014.2
20260508042111 44 265 0.0 0.0 0.00 0.24 0.00 94 1014.2
20260508041111 44 265 0.0 0.0 0.00 0.24 0.00 94 1014.0
20260508040111 44 265 0.0 0.0 0.00 0.24 0.00 94 1014.1
20260508035111 44 265 0.0 0.0 0.00 0.32 0.00 94 1014.1
20260508034111 44 265 0.0 0.0 0.00 0.32 0.00 94 1014.0
20260508031111 44 265 0.0 0.0 0.00 0.32 0.00 94 1014.1
20260508023110 44 265 0.0 4.0 0.00 0.38 0.00 94 1013.8
20260508022110 44 265 0.0 0.0 0.00 0.38 0.00 94 1013.8
20260508021110 44 265 0.0 0.0 0.00 0.38 0.00 94 1013.8
20260508015111 44 265 0.0 0.0 0.00 0.41 0.00 94 1014.0
20260508013112 44 265 0.0 0.0 0.00 0.41 0.00 94 1013.9
20260508004112 44 265 0.0 0.0 0.00 0.41 0.00 94 1013.6
20260508001112 44 265 0.0 1.0 0.00 0.41 0.00 94 1013.4
20260507235112 44 265 0.0 0.0 0.00 0.41 0.00 94 1013.4
20260507234112 44 265 0.0 0.0 0.00 0.41 0.00 94 1013.3
20260507233112 44 265 0.0 0.0 0.00 0.41 0.00 94 1013.3
20260507232112 44 265 0.0 0.0 0.00 0.41 0.00 94 1013.4
20260507225111 45 265 0.0 0.0 0.00 0.47 0.00 94 1013.4
20260507223111 45 265 0.0 0.0 0.00 0.47 0.00 94 1013.4
20260507221111 44 265 0.0 0.0 0.00 0.47 0.00 94 1013.3
20260507220111 44 265 0.0 0.0 0.00 0.47 0.00 94 1013.2
20260507212111 44 265 0.0 0.0 0.00 0.59 0.59 93 1013.0
20260507205111 44 265 0.0 0.0 0.00 0.61 0.59 93 1012.7
20260507204110 44 265 0.0 0.0 0.00 0.61 0.59 93 1012.6
20260507203110 45 265 0.0 0.0 0.00 0.61 0.59 93 1012.5
20260507201110 45 265 0.0 0.0 0.00 0.61 0.59 93 1012.3
20260507200110 46 265 0.0 0.0 0.00 0.61 0.59 92 1012.3
20260507194110 46 265 0.0 0.0 0.00 0.67 0.59 93 1012.0
20260507182110 49 265 0.0 1.0 0.01 0.67 0.59 92 1011.1
20260507181110 49 265 0.0 2.0 0.01 0.67 0.59 92 1011.0
20260507180109 49 265 0.0 0.0 0.01 0.67 0.59 91 1011.1
20260507174109 49 265 0.0 0.0 0.01 0.67 0.59 91 1011.1
20260507172109 50 265 0.0 0.0 0.00 0.66 0.58 90 1010.8
20260507165114 51 263 1.0 6.0 0.00 0.68 0.58 89 1010.6
20260507163114 52 267 0.0 4.0 0.00 0.68 0.58 89 1010.7
20260507161114 53 270 1.0 6.0 0.00 0.68 0.58 87 1010.5
20260507155114 55 285 0.0 5.0 0.00 0.68 0.58 85 1010.7
20260507153113 56 288 1.0 6.0 0.00 0.68 0.58 83 1010.4
20260507151113 57 276 3.0 10.0 0.00 0.68 0.58 81 1010.5
20260507150113 57 355 1.0 10.0 0.00 0.68 0.58 83 1010.6
20260507141113 56 300 1.0 7.0 0.00 0.68 0.58 84 1010.2
20260507140113 57 5 0.0 5.0 0.00 0.68 0.58 84 1010.5
20260507135113 58 281 5.0 10.0 0.00 0.68 0.58 82 1010.4
20260507125113 56 162 3.0 11.0 0.00 0.68 0.58 90 1010.1
20260507124112 55 202 0.0 1.0 0.00 0.68 0.58 92 1009.9
20260507123112 55 202 0.0 0.0 0.00 0.68 0.58 92 1009.7
20260507122112 54 202 1.0 5.0 0.02 0.68 0.58 92 1009.7
20260507114112 54 184 0.0 4.0 0.07 0.68 0.58 93 1009.5
20260507113112 53 184 0.0 0.0 0.07 0.68 0.58 91 1009.3
20260507112112 54 153 2.0 11.0 0.06 0.66 0.57 92 1009.3
20260507100112 53 296 0.0 0.0 0.00 0.61 0.51 94 1008.9
20260507093111 53 170 0.0 7.0 0.00 0.61 0.51 95 1008.6
20260507092111 53 189 0.0 0.0 0.00 0.61 0.51 95 1008.5
20260507091111 52 192 0.0 0.0 0.00 0.61 0.51 95 1008.3
20260507090111 52 196 1.0 6.0 0.00 0.61 0.51 95 1008.3
20260507085111 52 146 0.0 6.0 0.00 0.61 0.51 95 1008.2
20260507084111 52 163 0.0 0.0 0.04 0.61 0.51 95 1008.2
20260507082111 52 158 0.0 5.0 0.15 0.61 0.51 95 1007.8
20260507080111 51 158 1.0 6.0 0.15 0.61 0.51 95 1007.4
20260507075111 51 5 0.0 4.0 0.15 0.61 0.51 95 1007.4
20260507071111 51 115 0.0 5.0 0.00 0.46 0.36 95 1007.2
20260507070110 51 115 0.0 0.0 0.00 0.46 0.36 95 1007.2